Regional Weather Roundup
Issued by NWS

Home | Current Version | Previous Version | Text Only | Print | Product List | Glossary Off
Versions: 1 2 3 4 5 6 7 8 9 10 11 12 13 14 15 16 17 18 19 20 21 22 23 24 25 26 27 28 29 30 31 32 33 34 35 36 37 38 39 40 41 42 43 44 45 46 47 48 49 50

000
ASUS43 KLOT 311906
RWRIL

ILLINOIS REGIONAL WEATHER ROUNDUP
NATIONAL WEATHER SERVICE CHICAGO/ROMEOVILLE IL
200 PM CDT THU JUL 31 2014

NOTE: "FAIR" INDICATES FEW OR NO CLOUDS BELOW 12,000 FEET WITH NO
SIGNIFICANT WEATHER AND/OR OBSTRUCTIONS TO VISIBILITY.

* THESE STATIONS ARE NOT UNDER NWS QUALITY CONTROL. THEY ALSO MAY NOT
  REPORT WEATHER SUCH AS PRECIPITATION OR FOG.

ILZ001-002-007-009-015-016-024-312000-
NORTHWEST ILLINOIS

CITY           SKY/WX    TMP DP  RH WIND       PRES   REMARKS
MOLINE         MOSUNNY   82  60  47 W10G17    30.06F HX  82
STERLING*      MOSUNNY   82  63  51 W12G20    30.06S HX  83
SAVANNA*       MOSUNNY   82  55  38 W8        30.05F HX  81
$$

ILZ003-004-008-010-011-017-018-312000-
NORTH CENTRAL ILLINOIS

CITY           SKY/WX    TMP DP  RH WIND       PRES   REMARKS
ROCKFORD       MOSUNNY   82  56  40 W15       30.05F HX  82
FREEPORT*      MOSUNNY   80  62  54 W10G16    30.07F HX  81
ROCHELLE*      MOSUNNY   80  58  48 W10G17    30.06S HX  80
DE KALB*       MOSUNNY   77  59  53 W10G18    30.06F
PERU*          MOSUNNY   80  61  50 W7G16     30.07S HX  81
$$

ILZ005-006-012>014-019>023-312000-
NORTHEAST ILLINOIS

CITY           SKY/WX    TMP DP  RH WIND       PRES   REMARKS
CHICAGO-OHARE  MOSUNNY   84  54  35 W14       30.03S HX  83
CHICAGO-MIDWAY MOSUNNY   84  58  40 VRB7      30.03F HX  83
AURORA         MOSUNNY   81  60  48 W13       30.05F HX  82
LANSING*       PTSUNNY   82  59  46 W13G20    30.04F HX  82
JOLIET*        MOSUNNY   81  57  44 W9G17     30.06S HX  81
WAUKEGAN       MOSUNNY   82  58  43 VRB6      30.01F HX  82
DUPAGE AIRPORT MOSUNNY   82  57  42 W13       30.04S HX  82
KANKAKEE*      MOSUNNY   79  63  57 W9        30.07S HX  81
WHEELING       MOSUNNY   83  55  38 W10G21    30.04S HX  82
MORRIS*        MOSUNNY   82  63  53 W13       30.05F HX  83
ROMEOVILLE*    CLOUDY    79  59  50 W12G21    30.05S HX  80
NORTHERLY ISL    N/A     80  52  37 W10         N/A  HX  80
$$

LMZ740>746-312000-
SOUTHERN LAKE MICHIGAN

STATION/POSITION SKY/WX   TEMP    WIND        PRES    VSBY  WAVE
                          AIR SEA DIR/SP/G                  HT/PER
                          (F)     (DEG/KT/KT) (MB)    (MI)  (FT/S)
SOUTHERN BUOY              65 64  160/  4/  4 1016.9S         1
WAUKEGAN HARBOR            79     270/ 11/ 17   N/A
HARRISON CRIB              77     250/ 11/ 15   N/A
BURNHAM HARBOR             80     270/  5/ 13   N/A
CALUMET HARBOR             81     230/  8/ 13 1015.6F
MICHIGAN CITY              72     240/  7/  9   N/A
MICHIGAN CITY 6N           73 71  250/  2/  4   N/A           1
ST. JOSEPH                 70 69  230/  4/  6   N/A           1/ 3
$$

ILZ025>027-034>036-040-047-049-050-058-095>099-312000-
WEST-CENTRAL ILLINOIS

CITY           SKY/WX    TMP DP  RH WIND       PRES   REMARKS
QUINCY         MOSUNNY   80  59  48 CALM      30.09F HX  81
GALESBURG*     MOSUNNY   84  63  48 W6        30.08F HX  85
MACOMB*        SUNNY     79  61  54 CALM      30.10F HX  80
JACKSONVILLE*  SUNNY     82  61  48 SW3       30.10S HX  83
PITTSFIELD*    PTSUNNY   81  60  49 W3        30.10F HX  81
$$

ILZ028>032-037-038-041>044-048-051>054-059>061-312000-
CENTRAL ILLINOIS

CITY           SKY/WX    TMP DP  RH WIND       PRES   REMARKS
PONTIAC        SUNNY     82  63  51 W10       30.07S HX  83
DECATUR        MOSUNNY   81  60  48 SW8       30.09F HX  82
PEORIA         MOSUNNY   84  59  42 SW7       30.08S HX  84
LACON*         MOSUNNY   81  58  45 W6        30.06S HX  81
LINCOLN*       MOSUNNY   82  57  42 CALM      30.06S HX  82
SPRINGFIELD    MOSUNNY   83  61  47 W6        30.09F HX  83
TAYLORVILLE    MOSUNNY   79  59  50 CALM      30.09S HX  80
$$

ILZ033-039-045-046-055>057-062-063-312000-
EAST-CENTRAL ILLINOIS

CITY           SKY/WX    TMP DP  RH WIND       PRES   REMARKS
CHAMPAIGN      SUNNY     80  58  46 VRB3      30.09F HX  80
DANVILLE*      SUNNY     78  60  53 W5        30.06F HAZE    HX  80
RANTOUL*       SUNNY     81  58  45 W5        30.10S HX  81
MATTOON        MOSUNNY   80  60  50 MISG      30.08F HX  81
PARIS*         MOSUNNY   80  62  55 W3        30.10S HX  81
$$

ILZ079-100>102-312000-
SOUTHWEST ILLINOIS

CITY           SKY/WX    TMP DP  RH WIND       PRES   REMARKS
ALTON          MOSUNNY   82  61  47 E6        30.09F HX  83
BELLEVILLE     PTSUNNY   82  61  47 CALM      30.08S HX  83
CAHOKIA*       PTSUNNY   85  58  39 VRB3      30.07F HX  84
$$

ILZ064>066-069>071-074>076-080>082-084>086-088>090-092>094-312000-
SOUTH-CENTRAL ILLINOIS

CITY           SKY/WX    TMP DP  RH WIND       PRES   REMARKS
CARBONDALE     PTSUNNY   84  60  44 VRB5      30.08F HX  84
CAIRO*         PTSUNNY   81  66  61 SW5       30.10F HX  83
EFFINGHAM*     SUNNY     83  52  34 N3        30.08F HX  81
MARION         PTSUNNY   82  61  47 S6        30.10F HX  83
MT. VERNON     MOSUNNY   82  63  51 S5        30.10S HX  83
CENTRALIA*     SUNNY     89  55  31 S5        30.09S HX  87
SALEM*         MOSUNNY  N/A N/A N/A CALM      30.09F
METROPOLIS*    MOSUNNY   82  56  39 S6        30.09F HAZE    HX  82
$$

ILZ067-068-072-073-078-083-087-091-312000-
SOUTHEAST ILLINOIS

CITY           SKY/WX    TMP DP  RH WIND       PRES   REMARKS
LAWRENCEVILLE  MOSUNNY   82  63  52 W7        30.09F HX  83
FLORA*         SUNNY     81  59  47 CALM      30.09F HX  81
FAIRFIELD*     MOSUNNY   82  64  54 S5        30.09S HX  84
HARRISBURG*    MOSUNNY   81  62  53 SW3       30.10F HX  82
ROBINSON*      PTSUNNY   80  62  54 CALM      30.10S HX  81
$$

ABBREVIATIONS USED IN REMARKS
   TC - TEMPERATURE IN CELSIUS
  WCI - WIND CHILL INDEX
   HX - HEAT INDEX
  VSB - VISIBILITY
$$



USA.gov is the U.S. government's official web portal to all federal, state and local government web resources and services.